Weather History for Wiscasset, ME

Change the Weather History Date:

Wednesday, April 17, 2013

  Actual Average Record
Temperature  
Mean Temperature 50 °F -  
Max Temperature 62 °F 52 °F 81 °F (2012)
Min Temperature 37 °F 30 °F 19 °F (2003)
Degree Days  
Heating Degree Days 16    
Moisture  
Dew Point 29 °F    
Average Humidity 46    
Maximum Humidity 83    
Minimum Humidity 22    
Precipitation  
Precipitation 0.00 in - - ()
Sea Level Pressure  
Sea Level Pressure 30.17 in    
Wind  
Wind Speed 5 mph (NW)    
Max Wind Speed 10 mph    
Max Gust Speed 24 mph    
Visibility 10 miles    
Events      
Averages and records for this station are not official NWS values.
T = Trace of Precipitation, MM = Missing Value Source: NWS Daily Summary

Daily Weather History Graph

Daily Weather History Graph

Search for Another Location

Airport:

Trip Planner

Search our weather history database for the weather conditions in past years. The results will help you decide how hot, cold, wet, or windy it might be!

Date:

Astronomy

Apr. 17, 2013 Rise Set
Actual Time 5:51 AM EDT 7:25 PM EDT
Civil Twilight 5:21 AM EDT 7:55 PM EDT
Nautical Twilight 4:45 AM EDT 8:32 PM EDT
Astronomical Twilight 4:06 AM EDT 9:11 PM EDT
Moon 10:58 AM EDT (4/17) 1:05 AM EDT (4/17)
Length of Visible Light 14h 34m
Length of Day
13h 33m
Waxing Crescent, 42% of the Moon is Illuminated
Apr 17
Waxing Crescent
Apr 18
First Quarter
Apr 25
Full
May 2
Last Quarter
May 9
New

Hourly Weather History & Observations

Time (EDT) Temp. Dew Point Humidity Pressure Visibility Wind Dir Wind Speed Gust Speed Precip Events Conditions
12:53 AM 51.1 °F 46.0 °F 83% 29.98 in 10.0 mi SW 5.8 mph - N/A   Mostly Cloudy
1:53 AM 51.1 °F 46.0 °F 83% 30.00 in 10.0 mi Variable 4.6 mph - N/A   Mostly Cloudy
2:53 AM 52.0 °F 46.0 °F 80% 30.01 in 10.0 mi Variable 3.5 mph - N/A   Scattered Clouds
3:53 AM 50.0 °F 37.9 °F 63% 30.04 in 10.0 mi Variable 6.9 mph - N/A   Clear
4:53 AM 48.0 °F 34.0 °F 58% 30.06 in 10.0 mi Variable 3.5 mph - N/A   Clear
5:53 AM 41.0 °F 34.0 °F 76% 30.09 in 10.0 mi Calm Calm - N/A   Clear
6:53 AM 48.0 °F 30.9 °F 52% 30.11 in 10.0 mi Calm Calm - N/A   Clear
7:53 AM 50.0 °F 28.9 °F 44% 30.13 in 10.0 mi Variable 5.8 mph 16.1 mph N/A   Clear
8:53 AM 52.0 °F 26.1 °F 37% 30.14 in 10.0 mi NW 8.1 mph 24.2 mph N/A   Clear
10:53 AM 55.9 °F 27.0 °F 33% 30.17 in 10.0 mi Variable 5.8 mph - N/A   Clear
11:53 AM 57.9 °F 28.0 °F 32% 30.15 in 10.0 mi Variable 4.6 mph 17.3 mph N/A   Clear
12:53 PM 57.9 °F 26.1 °F 30% 30.16 in 10.0 mi NW 9.2 mph 23.0 mph N/A   Clear
1:53 PM 59.0 °F 26.1 °F 28% 30.16 in 10.0 mi NNW 9.2 mph 19.6 mph N/A   Clear
2:53 PM 60.1 °F 26.1 °F 27% 30.16 in 10.0 mi NW 10.4 mph 21.9 mph N/A   Clear
3:53 PM 60.1 °F 25.0 °F 26% 30.17 in 10.0 mi NNW 8.1 mph - N/A   Clear
4:53 PM 60.1 °F 21.9 °F 23% 30.20 in 10.0 mi NW 9.2 mph 19.6 mph N/A   Clear
5:53 PM 59.0 °F 19.9 °F 22% 30.22 in 10.0 mi NW 8.1 mph 16.1 mph N/A   Clear
6:53 PM 55.9 °F 19.9 °F 25% 30.25 in 10.0 mi Variable 5.8 mph - N/A   Clear
7:53 PM 51.1 °F 21.9 °F 32% 30.29 in 10.0 mi NW 4.6 mph - N/A   Clear
8:53 PM 45.0 °F 27.0 °F 49% 30.33 in 10.0 mi Calm Calm - N/A   Clear
9:53 PM 46.9 °F 21.9 °F 37% 30.35 in 10.0 mi Calm Calm - N/A   Clear
10:53 PM 39.9 °F 25.0 °F 55% 30.36 in 10.0 mi Calm Calm - N/A   Clear
11:53 PM 37.0 °F 26.1 °F 65% 30.35 in 10.0 mi Calm Calm - N/A   Clear